�N����,����,�g�[���i���ԁj���x,�g�[�����x,��g�[���i���ցj���x,����
 2002/10/27, 0:00,22,63,20.6,21
 2002/10/27, 0:15,21.8,63,20.6,21.1
 2002/10/27, 0:30,21.7,63,20.7,20.9
 2002/10/27, 0:45,21.7,63,20.7,21.1
 2002/10/27, 1:00,21.6,62,20.7,21.1
 2002/10/27, 1:15,21.5,62,20.6,21.2
 2002/10/27, 1:30,21.5,62,20.6,21
 2002/10/27, 1:45,21.5,62,20.5,20.8
 2002/10/27, 2:00,21.4,61,20.5,20.9
 2002/10/27, 2:15,21.4,61,20.4,21
 2002/10/27, 2:30,21.3,61,20.4,21
 2002/10/27, 2:45,21.2,61,20.3,21.1
 2002/10/27, 3:00,21.2,60,20.2,21.1
 2002/10/27, 3:15,21,59,20.2,21.1
 2002/10/27, 3:30,21,60,20.2,21.2
 2002/10/27, 3:45,20.9,59,20.1,21.3
 2002/10/27, 4:00,20.8,56,20.1,21.4
 2002/10/27, 4:15,20.6,54,20,21.4
 2002/10/27, 4:30,20.5,55,20,21.4
 2002/10/27, 4:45,20.5,55,20,21.4
 2002/10/27, 5:00,20.5,55,20,21.4
 2002/10/27, 5:15,20.4,56,19.9,21.4
 2002/10/27, 5:30,20.3,56,19.9,21.4
 2002/10/27, 5:45,20.4,56,19.8,21.4
 2002/10/27, 6:00,20.2,56,19.8,21.5
 2002/10/27, 6:15,20.2,54,19.7,21.5
 2002/10/27, 6:30,20.1,56,19.7,22.2
 2002/10/27, 6:45,20.1,56,19.7,22.4
 2002/10/27, 7:00,20.1,58,19.6,22.3
 2002/10/27, 7:15,19.9,55,19.5,22.2
 2002/10/27, 7:30,20,52,19.5,22.1
 2002/10/27, 7:45,20.6,51,19.4,21
 2002/10/27, 8:00,22.6,46,19.4,21
 2002/10/27, 8:15,22.9,44,19.4,20.7
 2002/10/27, 8:30,22.8,44,19.4,20.8
 2002/10/27, 8:45,22.7,42,19.4,20.8
 2002/10/27, 9:00,22.2,38,19.3,20.7
 2002/10/27, 9:15,22.5,38,19.3,20.3
 2002/10/27, 9:30,22.3,36,19.3,20.3
 2002/10/27, 9:45,22.4,35,19.3,20.4
 2002/10/27,10:00,22.4,36,19.3,20.4
 2002/10/27,10:15,21.9,34,18.9,20.5
 2002/10/27,10:30,22.1,35,19,20.5
 2002/10/27,10:45,20,31,17.8,20.2
 2002/10/27,11:00,20.3,30,17.5,20.3
 2002/10/27,11:15,21.5,34,18,20.3
 2002/10/27,11:30,21.9,35,18.6,20.3
 2002/10/27,11:45,22.5,35,19.1,20.2
 2002/10/27,12:00,22.8,36,19.5,20.4
 2002/10/27,12:15,22.8,37,19.7,20.5
 2002/10/27,12:30,22.8,34,19.8,20.4
 2002/10/27,12:45,22.5,38,19.9,20.5
 2002/10/27,13:00,22.4,38,19.9,20.5
 2002/10/27,13:15,22.5,38,20,20.6
 2002/10/27,13:30,22.4,39,20.1,20.6
 2002/10/27,13:45,22.5,37,20.2,20.6
 2002/10/27,14:00,22.5,39,20.4,20.6
 2002/10/27,14:15,22.5,40,20.5,20.6
 2002/10/27,14:30,22.3,40,20.5,20.6
 2002/10/27,14:45,22.1,40,20.5,20.6
 2002/10/27,15:00,22,41,20.4,20.6
 2002/10/27,15:15,21,30,20.3,20.6
 2002/10/27,15:30,21.7,40,20.3,20.6
 2002/10/27,15:45,21.7,40,20.3,20.7
 2002/10/27,16:00,21.6,41,20.3,20.7
 2002/10/27,16:15,21.6,41,20.3,20.7
 2002/10/27,16:30,21.6,41,20.2,20.7
 2002/10/27,16:45,21.9,41,20.1,20.7
 2002/10/27,17:00,21.9,42,20,20.7
 2002/10/27,17:15,21.9,43,20,20.6
 2002/10/27,17:30,22,43,19.8,20.2
 2002/10/27,17:45,22.1,43,19.7,20.3
 2002/10/27,18:00,22.1,43,19.6,20.3
 2002/10/27,18:15,22.2,43,19.5,20.3
 2002/10/27,18:30,22.3,48,19.4,20.4
 2002/10/27,18:45,22.5,52,19.4,20.4
 2002/10/27,19:00,22.5,52,19.3,20.4
 2002/10/27,19:15,22.5,50,19.3,20.4
 2002/10/27,19:30,22.4,48,19.2,20.5
 2002/10/27,19:45,22.3,46,19.1,20.5
 2002/10/27,20:00,22.3,44,19,20.5
 2002/10/27,20:15,22.3,42,19,20.5
 2002/10/27,20:30,22.2,43,18.9,20.5
 2002/10/27,20:45,22.2,44,18.9,20.2
 2002/10/27,21:00,22.2,44,18.8,20.3
 2002/10/27,21:15,22,45,18.8,20.3
 2002/10/27,21:30,22,45,18.8,20.4
 2002/10/27,21:45,21.8,45,18.8,20.4
 2002/10/27,22:00,21.6,45,18.7,20
 2002/10/27,22:15,21.6,45,18.7,19.9
 2002/10/27,22:30,21.5,46,18.7,20
 2002/10/27,22:45,21.3,47,18.7,20.2
 2002/10/27,23:00,21.2,48,18.7,20.4
 2002/10/27,23:15,20.7,46,18.8,20.5
 2002/10/27,23:30,20.5,46,18.8,20.6
 2002/10/27,23:45,20.6,47,18.9,20.6
 2002/10/28, 0:00,20.5,47,18.9,20.6
 2002/10/28, 0:15,20.4,47,19,20.7
 2002/10/28, 0:30,20.3,46,19,20.7
 2002/10/28, 0:45,20.2,47,18.9,20.7
 2002/10/28, 1:00,20.2,47,18.9,20.6
 2002/10/28, 1:15,20,47,18.9,20.6
 2002/10/28, 1:30,20,47,18.9,20.5
 2002/10/28, 1:45,19.9,47,18.8,20.5
 2002/10/28, 2:00,19.8,47,18.8,20.4
 2002/10/28, 2:15,19.7,46,18.8,20.3
 2002/10/28, 2:30,19.6,47,18.7,20.3
 2002/10/28, 2:45,19.5,47,18.7,20.3
 2002/10/28, 3:00,19.4,47,18.7,20.3
 2002/10/28, 3:15,19.3,47,18.6,20.3
 2002/10/28, 3:30,19.4,48,18.6,20.4
 2002/10/28, 3:45,19.3,48,18.5,20.5
 2002/10/28, 4:00,19.3,47,18.5,20.5
 2002/10/28, 4:15,19.3,47,18.5,20.6
 2002/10/28, 4:30,19.2,47,18.4,20.6
 2002/10/28, 4:45,19.1,48,18.4,20.6
 2002/10/28, 5:00,19.1,48,18.4,20.6
 2002/10/28, 5:15,19.2,49,18.4,21.1
 2002/10/28, 5:30,19.3,48,18.4,21.1
 2002/10/28, 5:45,19.3,48,18.4,21.1
 2002/10/28, 6:00,19.3,48,18.4,21.1
 2002/10/28, 6:15,19.1,49,18.3,21
 2002/10/28, 6:30,19,49,18.3,20.9
 2002/10/28, 6:45,18.9,49,18.2,20.5
 2002/10/28, 7:00,19,50,18.2,20.1
 2002/10/28, 7:15,19.4,53,18.2,20.1
 2002/10/28, 7:30,20.6,50,18.3,20.1
 2002/10/28, 7:45,22.1,45,18.5,20.1
 2002/10/28, 8:00,21.8,45,18.6,20
 2002/10/28, 8:15,21.7,47,18.5,20
 2002/10/28, 8:30,22.4,45,18.4,20
 2002/10/28, 8:45,22.2,45,18.4,20
 2002/10/28, 9:00,21.3,48,18.5,20
 2002/10/28, 9:15,21.1,49,18.5,19.9
 2002/10/28, 9:30,21.1,49,18.6,19.9
 2002/10/28, 9:45,21.1,49,18.8,19.9
 2002/10/28,10:00,21.1,49,18.8,19.9
 2002/10/28,10:15,21,49,18.9,19.8
 2002/10/28,10:30,20.9,49,18.9,19.8
 2002/10/28,10:45,20.8,49,18.9,19.8
 2002/10/28,11:00,20.7,49,18.9,19.8
 2002/10/28,11:15,20.7,49,19,19.8
 2002/10/28,11:30,20.6,49,19,19.8
 2002/10/28,11:45,20.5,49,18.9,19.8
 2002/10/28,12:00,20.6,48,19,19.8
 2002/10/28,12:15,20.5,49,19,19.8
 2002/10/28,12:30,20.4,45,19,19.8
 2002/10/28,12:45,20.3,49,19,19.8
 2002/10/28,13:00,20.4,49,19,19.8
 2002/10/28,13:15,20.4,46,19,19.9
 2002/10/28,13:30,20.3,48,19,19.9
 2002/10/28,13:45,20.5,47,19.1,19.9
 2002/10/28,14:00,20.3,48,19.1,20
 2002/10/28,14:15,20.4,48,19.1,20
 2002/10/28,14:30,20.2,48,19.1,20
 2002/10/28,14:45,20.3,48,19,20
 2002/10/28,15:00,20.1,48,19,20
 2002/10/28,15:15,20.1,46,19,20
 2002/10/28,15:30,20.1,45,19,20
 2002/10/28,15:45,20,45,19,20
 2002/10/28,16:00,20,44,19,20
 2002/10/28,16:15,19.9,47,19,20
 2002/10/28,16:30,19.9,47,19,19.9
 2002/10/28,16:45,20,47,19,20
 2002/10/28,17:00,20,48,18.9,20.1
 2002/10/28,17:15,20.1,48,18.8,20.1
 2002/10/28,17:30,20.2,49,18.7,20
 2002/10/28,17:45,20.2,49,18.6,20
 2002/10/28,18:00,20.2,49,18.6,20
 2002/10/28,18:15,20.1,48,18.5,19.9
 2002/10/28,18:30,20,50,18.4,19.9
 2002/10/28,18:45,20,49,18.3,19.9
 2002/10/28,19:00,20,50,18.3,19.9
 2002/10/28,19:15,20.1,49,18.5,19.8
 2002/10/28,19:30,19.9,49,18.6,19.8
 2002/10/28,19:45,19.9,50,18.7,19.8
 2002/10/28,20:00,20.2,49,18.7,19.7
 2002/10/28,20:15,20.2,47,18.6,19.7
 2002/10/28,20:30,20.2,45,18.6,19.6
 2002/10/28,20:45,20.1,43,18.3,19.7
 2002/10/28,21:00,20.1,48,18.2,19.7
 2002/10/28,21:15,20.4,49,18.1,19.8
 2002/10/28,21:30,20.3,49,18.1,19.8
 2002/10/28,21:45,20.2,49,18,19.9
 2002/10/28,22:00,20.1,49,17.9,19.9
 2002/10/28,22:15,19.9,50,17.9,20
 2002/10/28,22:30,19.9,50,17.9,20
 2002/10/28,22:45,19.9,50,17.9,20
 2002/10/28,23:00,20,51,17.8,19.9
 2002/10/28,23:15,19.8,51,17.8,19.9
 2002/10/28,23:30,19.6,50,17.8,19.9
 2002/10/28,23:45,19.4,51,17.9,20
 2002/10/29, 0:00,19.3,50,17.9,20
 2002/10/29, 0:15,19.2,50,17.9,20
 2002/10/29, 0:30,19.2,49,17.9,20
 2002/10/29, 0:45,19,49,17.9,19.8
 2002/10/29, 1:00,18.9,48,17.9,19.7
 2002/10/29, 1:15,18.8,47,17.9,19.7
 2002/10/29, 1:30,18.6,46,17.9,19.7
 2002/10/29, 1:45,18.5,46,17.9,19.7
 2002/10/29, 2:00,18.2,46,17.8,19.7
 2002/10/29, 2:15,18.2,47,17.8,19.7
 2002/10/29, 2:30,18,47,17.7,19.7
 2002/10/29, 2:45,18.1,48,17.7,19.7
 2002/10/29, 3:00,18.1,48,17.6,19.7
 2002/10/29, 3:15,18,49,17.5,19.8
 2002/10/29, 3:30,17.8,48,17.5,19.8
 2002/10/29, 3:45,17.8,49,17.4,19.9
 2002/10/29, 4:00,17.6,48,17.3,19.9
 2002/10/29, 4:15,17.5,48,17.3,19.9
 2002/10/29, 4:30,17.5,48,17.2,20
 2002/10/29, 4:45,17.3,49,17.2,19.9
 2002/10/29, 5:00,17.4,48,17.1,19.9
 2002/10/29, 5:15,17.2,49,17,19.9
 2002/10/29, 5:30,17.3,49,17,19.9
 2002/10/29, 5:45,17.2,49,16.9,19.9
 2002/10/29, 6:00,17.1,49,16.9,19.8
 2002/10/29, 6:15,17,49,16.8,19.7
 2002/10/29, 6:30,17,49,16.8,19.7
 2002/10/29, 6:45,17.1,49,16.7,19.6
 2002/10/29, 7:00,17.7,49,16.7,19.7
 2002/10/29, 7:15,18.8,46,16.7,19.4
 2002/10/29, 7:30,19.8,45,16.7,19.4
 2002/10/29, 7:45,21,38,16.9,19.2
 2002/10/29, 8:00,19.2,32,16.8,19.3
 2002/10/29, 8:15,19.5,40,16.8,19.4
 2002/10/29, 8:30,19.1,42,16.8,19.4
 2002/10/29, 8:45,18.8,44,16.8,19.3
 2002/10/29, 9:00,18.7,45,16.8,19.3
 2002/10/29, 9:15,18.7,45,16.8,19.2
 2002/10/29, 9:30,18.5,46,16.8,19.2
 2002/10/29, 9:45,18.5,46,16.8,19.1
 2002/10/29,10:00,18.8,46,16.9,19.1
 2002/10/29,10:15,18.9,46,17,19.1
 2002/10/29,10:30,19,46,17.2,19.1
 2002/10/29,10:45,19.1,46,17.3,19.1
 2002/10/29,11:00,19.2,46,17.4,19.1
 2002/10/29,11:15,19.3,46,17.6,19.1
 2002/10/29,11:30,19.4,45,17.7,19.1
 2002/10/29,11:45,19.4,45,17.8,19.1
 2002/10/29,12:00,19.5,46,17.9,19.1
 2002/10/29,12:15,19.5,46,18,19.2
 2002/10/29,12:30,19.7,46,18.2,19.2
 2002/10/29,12:45,19.8,45,18.3,19.3
 2002/10/29,13:00,19.6,46,18.3,19.3
 2002/10/29,13:15,19.5,46,18.3,19.3
 2002/10/29,13:30,19.3,46,18.2,19.4
 2002/10/29,13:45,19.4,46,18.2,19.4
 2002/10/29,14:00,19.4,46,18.2,19.4
 2002/10/29,14:15,19.2,46,18.1,19.4
 2002/10/29,14:30,19.2,46,18.1,19.4
 2002/10/29,14:45,19.2,46,18.1,19.4
 2002/10/29,15:00,19,47,18.1,19.4
 2002/10/29,15:15,19,47,18,19.4
 2002/10/29,15:30,18.9,47,18,19.4
 2002/10/29,15:45,19,48,18,19.4
 2002/10/29,16:00,19,48,18,19.4
 2002/10/29,16:15,19,48,17.9,19.5
 2002/10/29,16:30,18.9,49,17.9,19.5
 2002/10/29,16:45,19,48,18.1,19.9
 2002/10/29,17:00,19,48,17.9,20.3
 2002/10/29,17:15,19.1,48,17.8,20.1
 2002/10/29,17:30,19.3,48,17.8,20
 2002/10/29,17:45,19.3,48,17.7,19.9
 2002/10/29,18:00,19.5,48,17.6,19.7
 2002/10/29,18:15,19.3,48,17.5,19.4
 2002/10/29,18:30,19.3,48,17.5,19.4
 2002/10/29,18:45,19.1,48,17.5,19.4
 2002/10/29,19:00,19.1,50,17.6,19.4
 2002/10/29,19:15,19,50,17.6,19.4
 2002/10/29,19:30,19,51,17.7,19.3
 2002/10/29,19:45,19.2,51,17.7,19.3
 2002/10/29,20:00,19.5,52,17.6,19.2
 2002/10/29,20:15,19.6,52,17.5,19.2
 2002/10/29,20:30,19.6,52,17.5,19.1
 2002/10/29,20:45,19.6,52,17.4,19.2
 2002/10/29,21:00,19.6,51,17.3,19.2
 2002/10/29,21:15,19.5,51,17.3,19.2
 2002/10/29,21:30,19.6,51,17.3,19.2
 2002/10/29,21:45,19.3,52,17.3,19.3
 2002/10/29,22:00,19.2,52,17.2,19.3
 2002/10/29,22:15,19.3,52,17.2,19
 2002/10/29,22:30,19.1,52,17.1,19.1
 2002/10/29,22:45,18.9,55,17.1,19.3
 2002/10/29,23:00,19,55,17.1,19.5
 2002/10/29,23:15,19,57,17.1,19.5
 2002/10/29,23:30,18.9,58,17.1,19.5
 2002/10/29,23:45,18.9,59,17.1,19.6
 2002/10/30, 0:00,18.9,58,17,19.6
 2002/10/30, 0:15,18.8,58,17,19.6
 2002/10/30, 0:30,18.6,58,17,19.6
 2002/10/30, 0:45,18.6,58,16.9,19.5
 2002/10/30, 1:00,18.5,58,16.9,19.4
 2002/10/30, 1:15,18.3,57,16.9,19.2
 2002/10/30, 1:30,18.2,56,16.9,19.2
 2002/10/30, 1:45,17.9,55,16.9,19.3
 2002/10/30, 2:00,17.8,55,16.9,19.4
 2002/10/30, 2:15,17.6,55,16.9,19.5
 2002/10/30, 2:30,17.5,55,16.9,19.5
 2002/10/30, 2:45,17.4,54,16.9,19.5
 2002/10/30, 3:00,17.3,54,16.8,19.6
 2002/10/30, 3:15,17.2,54,16.8,19.6
 2002/10/30, 3:30,17.1,54,16.8,19.7
 2002/10/30, 3:45,17.1,54,16.7,19.7
 2002/10/30, 4:00,17,55,16.7,19.7
 2002/10/30, 4:15,16.9,54,16.6,19.7
 2002/10/30, 4:30,16.8,54,16.6,19.6
 2002/10/30, 4:45,16.7,54,16.5,19.6
 2002/10/30, 5:00,16.6,55,16.5,19.6
 2002/10/30, 5:15,16.6,54,16.5,19.7
 2002/10/30, 5:30,16.6,54,16.4,19.7
 2002/10/30, 5:45,16.6,54,16.4,19.7
 2002/10/30, 6:00,16.5,54,16.3,19.7
 2002/10/30, 6:15,16.5,54,16.3,19.7
 2002/10/30, 6:30,16.5,54,16.2,19.7
 2002/10/30, 6:45,16.8,54,16.2,19.6
 2002/10/30, 7:00,17.5,58,16.4,19.5
 2002/10/30, 7:15,19,56,16.5,19.5
 2002/10/30, 7:30,20,52,16.7,19.5
 2002/10/30, 7:45,21.5,48,17,19.2
 2002/10/30, 8:00,22.7,44,17,19.2
 2002/10/30, 8:15,22.8,43,17,19
 2002/10/30, 8:30,22.4,44,17.1,19.1
 2002/10/30, 8:45,21.7,45,17.1,19.1
 2002/10/30, 9:00,21.5,46,17.1,19
 2002/10/30, 9:15,21.5,46,17.2,18.9
 2002/10/30, 9:30,21.6,46,17.3,18.9
 2002/10/30, 9:45,21.6,46,17.4,18.9
 2002/10/30,10:00,21.6,45,17.5,18.9
 2002/10/30,10:15,21.4,46,17.6,18.9
 2002/10/30,10:30,21.2,46,17.7,18.9
 2002/10/30,10:45,20.7,47,17.8,18.9
 2002/10/30,11:00,20.5,48,17.8,18.9
 2002/10/30,11:15,20.2,48,17.7,18.9
 2002/10/30,11:30,20.1,48,17.7,18.9
 2002/10/30,11:45,20,49,17.7,18.9
 2002/10/30,12:00,19.8,49,17.7,19
 2002/10/30,12:15,19.6,49,17.7,19
 2002/10/30,12:30,19.5,50,17.6,19
 2002/10/30,12:45,19.4,50,17.6,19
 2002/10/30,13:00,19.4,50,17.6,19
 2002/10/30,13:15,19.5,50,17.6,19.1
 2002/10/30,13:30,19.7,50,17.7,19.2
 2002/10/30,13:45,19.7,50,17.8,19.7
 2002/10/30,14:00,19.7,49,17.9,19.9
 2002/10/30,14:15,19.7,50,17.9,19.8
 2002/10/30,14:30,19.6,50,17.9,19.7
 2002/10/30,14:45,19.4,50,17.9,19.6
 2002/10/30,15:00,19.4,50,18,19.5
 2002/10/30,15:15,19.5,50,18,19.4
 2002/10/30,15:30,19.3,50,18,19.4
 2002/10/30,15:45,19.3,50,18,19.3
 2002/10/30,16:00,19.3,50,18,19.3
 2002/10/30,16:15,19.1,50,18,19.3
 2002/10/30,16:30,19.1,51,17.9,19.3
 2002/10/30,16:45,19,51,17.9,19.3
 2002/10/30,17:00,19.1,51,17.9,19.3
 2002/10/30,17:15,19.1,52,17.9,19.4
 2002/10/30,17:30,19.1,52,17.8,19.4
 2002/10/30,17:45,19.1,52,17.8,19.4
 2002/10/30,18:00,19,52,17.8,19.3
 2002/10/30,18:15,19.1,52,17.8,19.2
 2002/10/30,18:30,19.4,54,17.9,19.2
 2002/10/30,18:45,19.4,53,17.7,19.2
 2002/10/30,19:00,19.7,53,17.6,19.1
 2002/10/30,19:15,19.8,52,17.5,19.1
 2002/10/30,19:30,19.9,52,17.5,19.3
 2002/10/30,19:45,20.2,53,17.4,19.4
 2002/10/30,20:00,20.2,53,17.4,19.4
 2002/10/30,20:15,20,54,17.3,19.4
 2002/10/30,20:30,19.8,53,17.3,19.3
 2002/10/30,20:45,20,54,17.4,19.2
 2002/10/30,21:00,20.2,54,17.3,19.1
 2002/10/30,21:15,20.2,55,17.3,19.1
 2002/10/30,21:30,20.1,55,17.3,19.2
 2002/10/30,21:45,20,55,17.3,19.1
 2002/10/30,22:00,19.9,55,17.3,18.9
 2002/10/30,22:15,19.9,55,17.3,19
 2002/10/30,22:30,19.7,55,17.3,19.1
 2002/10/30,22:45,19.8,55,17.3,19.2
 2002/10/30,23:00,19.6,56,17.3,19.2
 2002/10/30,23:15,19.7,56,17.3,19.2
 2002/10/30,23:30,19.5,56,17.3,19.2
 2002/10/30,23:45,19.1,56,17.2,19.3
 2002/10/31, 0:00,19.1,56,17.2,19.1
 2002/10/31, 0:15,18.8,56,17.2,19.2
 2002/10/31, 0:30,18.7,56,17.2,19.2
 2002/10/31, 0:45,18.5,56,17.2,19.1
 2002/10/31, 1:00,18.4,56,17.2,19.1
 2002/10/31, 1:15,18.2,56,17.1,19
 2002/10/31, 1:30,18.1,56,17.1,19
 2002/10/31, 1:45,17.9,56,17,18.9
 2002/10/31, 2:00,17.8,56,17,18.9
 2002/10/31, 2:15,17.7,56,16.9,18.9
 2002/10/31, 2:30,17.5,56,16.9,18.9
 2002/10/31, 2:45,17.4,56,16.8,18.9
 2002/10/31, 3:00,17.2,56,16.8,19
 2002/10/31, 3:15,17.2,56,16.7,19.1
 2002/10/31, 3:30,17.1,56,16.7,19.2
 2002/10/31, 3:45,17,56,16.6,19.2
 2002/10/31, 4:00,16.9,56,16.6,19.2
 2002/10/31, 4:15,16.8,56,16.5,19.3
 2002/10/31, 4:30,16.7,56,16.4,19.3
 2002/10/31, 4:45,16.5,56,16.4,19.3
 2002/10/31, 5:00,16.6,56,16.3,19.3
 2002/10/31, 5:15,16.4,56,16.3,19.9
 2002/10/31, 5:30,16.6,59,16.2,20.2
 2002/10/31, 5:45,16.5,58,16.2,20.1
 2002/10/31, 6:00,16.4,58,16.2,19.8
 2002/10/31, 6:15,16.4,57,16.1,19.6
 2002/10/31, 6:30,16.3,57,15.9,19.5
 2002/10/31, 6:45,16.2,57,15.9,19.4
 2002/10/31, 7:00,16.3,58,15.8,19.4
 2002/10/31, 7:15,16.6,61,15.8,19.3
 2002/10/31, 7:30,18.4,57,15.7,18.9
 2002/10/31, 7:45,17.9,54,15.8,18.9
 2002/10/31, 8:00,19.3,51,15.9,18.9
 2002/10/31, 8:15,18.7,53,15.9,18.6
 2002/10/31, 8:30,18.3,53,15.9,18.7
 2002/10/31, 8:45,17.8,53,15.9,18.6
 2002/10/31, 9:00,17.7,54,15.9,18.5
 2002/10/31, 9:15,17.5,54,15.9,18.5
 2002/10/31, 9:30,17.5,54,15.9,18.4
 2002/10/31, 9:45,17.7,54,15.9,18.4
 2002/10/31,10:00,17.6,54,15.9,18.4
 2002/10/31,10:15,17.7,54,15.9,18.4
 2002/10/31,10:30,17.6,54,15.9,18.4
 2002/10/31,10:45,17.5,53,15.9,18.3
 2002/10/31,11:00,17.7,53,16,18.3
 2002/10/31,11:15,17.8,53,16,18.3
 2002/10/31,11:30,17.7,53,16.1,18.3
 2002/10/31,11:45,17.7,53,16.1,18.3
 2002/10/31,12:00,17.8,53,16.1,18.4
 2002/10/31,12:15,17.8,52,16.2,18.5
 2002/10/31,12:30,17.8,52,16.2,18.5
 2002/10/31,12:45,17.8,52,16.2,18.6
 2002/10/31,13:00,18,52,16.3,18.6
 2002/10/31,13:15,17.9,52,16.3,18.7
 2002/10/31,13:30,17.9,52,16.4,18.8
 2002/10/31,13:45,18,52,16.4,18.9
 2002/10/31,14:00,17.9,51,16.5,18.9
 2002/10/31,14:15,17.9,52,16.5,18.9
 2002/10/31,14:30,17.9,52,16.5,19
 2002/10/31,14:45,17.9,52,16.5,19
 2002/10/31,15:00,17.9,52,16.5,19.1
 2002/10/31,15:15,18,52,16.5,19.2
 2002/10/31,15:30,17.8,52,16.6,19.2
 2002/10/31,15:45,17.8,53,16.6,19.3
 2002/10/31,16:00,17.8,53,16.6,19.3
 2002/10/31,16:15,17.7,53,16.6,19.2
 2002/10/31,16:30,17.7,53,16.5,19.2
 2002/10/31,16:45,17.7,54,16.5,19.2
 2002/10/31,17:00,17.7,54,16.5,19.2
 2002/10/31,17:15,18,54,16.5,19.2
 2002/10/31,17:30,18.1,57,16.5,19.2
 2002/10/31,17:45,18.5,64,16.5,18.8
 2002/10/31,18:00,18.8,71,16.5,18.9
 2002/10/31,18:15,18.9,71,16.4,19
 2002/10/31,18:30,18.8,64,16.5,18.8
 2002/10/31,18:45,18.8,63,16.6,18.9
 2002/10/31,19:00,18.7,62,16.5,18.9
 2002/10/31,19:15,18.7,63,16.5,19.2
 2002/10/31,19:30,18.7,62,16.4,19.2
 2002/10/31,19:45,18.8,61,16.4,19.2
 2002/10/31,20:00,18.9,61,16.4,19.2
 2002/10/31,20:15,18.9,59,16.4,19.2
 2002/10/31,20:30,19,59,16.4,19.1
 2002/10/31,20:45,19,59,16.4,19
 2002/10/31,21:00,19,58,16.3,18.9
 2002/10/31,21:15,19,59,16.3,18.9
 2002/10/31,21:30,19,58,16.4,18.9
 2002/10/31,21:45,19,58,16.4,18.9
 2002/10/31,22:00,19,58,16.4,18.9
 2002/10/31,22:15,19,58,16.5,18.8
 2002/10/31,22:30,18.9,58,16.4,18.8
 2002/10/31,22:45,18.8,58,16.4,18.5
 2002/10/31,23:00,18.8,58,16.4,18.6
 2002/10/31,23:15,18.7,59,16.4,18.7
 2002/10/31,23:30,18.7,60,16.4,18.8
 2002/10/31,23:45,18.9,59,16.4,18.8
